When you browse on this site, cookies collect data to enhance your experience and personalize the content and advertising you see.
Visit our Privacy Policy to learn more. By continuing to use the site, you agree to this use of cookies and data.
  • Em Portugal
  • Lista de países
  • Para 7 dias
  • Temperatura da água
  • Mapas de satélite
  • Mapa do tempo
  • Widgets de tempo
  • user-avatar
    Iniciar Sessão

    Previsão horária em Lubango

    Hoje, 13 Dezembro, Quinta-feira

    Tempo Temperatura Precipitação Vento Pressão Humidade
    00:00 +15°C° 0 mm 1 m/s 609 mmHg 63%
    01:00 +15°C° 0 mm 1 m/s 609 mmHg 65%
    02:00 +14°C° 0 mm 1 m/s 609 mmHg 64%
    03:00 +14°C° 0 mm 1 m/s 609 mmHg 63%
    04:00 +14°C° 0 mm 1 m/s 609 mmHg 63%
    05:00 +15°C° 0 mm 1 m/s 609 mmHg 56%
    06:00 +16°C° 0 mm 0 m/s 610 mmHg 49%
    07:00 +17°C° 0 mm 0 m/s 611 mmHg 43%
    08:00 +23°C° 0 mm 1 m/s 612 mmHg 34%
    09:00 +26°C° 0 mm 2 m/s 614 mmHg 26%
    10:00 +29°C° 0 mm 3 m/s 615 mmHg 17%
    11:00 +30°C° 0 mm 3 m/s 614 mmHg 16%
    12:00 +31°C° 0 mm 3 m/s 614 mmHg 15%
    13:00 +33°C° 0 mm 3 m/s 614 mmHg 13%
    14:00 +32°C° 0 mm 4 m/s 613 mmHg 15%
    15:00 +30°C° 0 mm 4 m/s 612 mmHg 17%
    16:00 +29°C° 0 mm 4 m/s 612 mmHg 19%
    17:00 +26°C° 0 mm 4 m/s 611 mmHg 25%
    18:00 +22°C° 0 mm 3 m/s 610 mmHg 30%
    19:00 +20°C° 0 mm 2 m/s 610 mmHg 36%
    20:00 +19°C° 0 mm 2 m/s 610 mmHg 38%
    21:00 +19°C° 0 mm 1 m/s 610 mmHg 40%
    22:00 +18°C° 0 mm 1 m/s 611 mmHg 43%
    23:00 +18°C° 0 mm 1 m/s 610 mmHg 43%

    Amanhã, 14 Dezembro, Sexta-feira

    Tempo Temperatura Precipitação Vento Pressão Humidade
    00:00 +16°C° 0 mm 1 m/s 610 mmHg 43%
    01:00 +16°C° 0 mm 1 m/s 610 mmHg 43%
    02:00 +16°C° 0 mm 1 m/s 610 mmHg 43%
    03:00 +15°C° 0 mm 1 m/s 609 mmHg 44%
    04:00 +14°C° 0 mm 1 m/s 609 mmHg 45%
    05:00 +16°C° 0 mm 1 m/s 610 mmHg 42%
    06:00 +18°C° 0 mm 1 m/s 611 mmHg 39%
    07:00 +20°C° 0 mm 1 m/s 612 mmHg 37%
    08:00 +21°C° 0.1 mm 1 m/s 612 mmHg 35%
    09:00 +22°C° 0.1 mm 1 m/s 612 mmHg 32%
    10:00 +23°C° 0.1 mm 1 m/s 613 mmHg 30%
    11:00 +25°C° 0 mm 2 m/s 613 mmHg 27%
    12:00 +27°C° 0 mm 3 m/s 613 mmHg 24%
    13:00 +29°C° 0 mm 3 m/s 613 mmHg 20%
    14:00 +28°C° 0 mm 3 m/s 612 mmHg 23%
    15:00 +27°C° 0 mm 3 m/s 611 mmHg 25%
    16:00 +27°C° 0 mm 3 m/s 611 mmHg 27%
    17:00 +24°C° 0 mm 3 m/s 610 mmHg 37%
    18:00 +20°C° 0 mm 3 m/s 610 mmHg 46%
    19:00 +18°C° 0 mm 2 m/s 610 mmHg 55%
    20:00 +17°C° 0 mm 2 m/s 610 mmHg 61%
    21:00 +16°C° 0 mm 2 m/s 610 mmHg 66%
    22:00 +14°C° 0 mm 1 m/s 610 mmHg 72%
    23:00 +14°C° 0 mm 1 m/s 610 mmHg 73%

    Depois de amanhã, 15 Dezembro, Sábado

    Tempo Temperatura Precipitação Vento Pressão Humidade
    00:00 +14°C° 0 mm 1 m/s 609 mmHg 74%
    01:00 +13°C° 0 mm 1 m/s 609 mmHg 76%
    02:00 +13°C° 0 mm 1 m/s 609 mmHg 76%
    03:00 +13°C° 0 mm 1 m/s 609 mmHg 75%
    04:00 +13°C° 0 mm 1 m/s 608 mmHg 75%
    05:00 +14°C° 0 mm 1 m/s 609 mmHg 68%
    06:00 +15°C° 0 mm 1 m/s 610 mmHg 62%
    07:00 +18°C° 0 mm 1 m/s 611 mmHg 55%
    08:00 +21°C° 0 mm 1 m/s 612 mmHg 44%
    09:00 +24°C° 0 mm 1 m/s 613 mmHg 34%
    10:00 +27°C° 0 mm 2 m/s 614 mmHg 23%
    11:00 +28°C° 0 mm 2 m/s 614 mmHg 22%
    12:00 +29°C° 0 mm 2 m/s 614 mmHg 21%
    13:00 +30°C° 0 mm 3 m/s 613 mmHg 20%
    14:00 +29°C° 0 mm 3 m/s 613 mmHg 23%
    15:00 +28°C° 0 mm 4 m/s 612 mmHg 26%
    16:00 +27°C° 0 mm 4 m/s 611 mmHg 29%
    17:00 +25°C° 0 mm 4 m/s 610 mmHg 39%
    18:00 +21°C° 0 mm 3 m/s 610 mmHg 48%
    19:00 +18°C° 0 mm 3 m/s 610 mmHg 58%
    20:00 +17°C° 0 mm 2 m/s 610 mmHg 64%
    21:00 +16°C° 0 mm 2 m/s 610 mmHg 69%
    22:00 +15°C° 0 mm 2 m/s 610 mmHg 75%
    23:00 +14°C° 0 mm 1 m/s 610 mmHg 76%

    16 Dezembro, Domingo

    Tempo Temperatura Precipitação Vento Pressão Humidade
    00:00 +14°C° 0 mm 1 m/s 609 mmHg 78%
    01:00 +14°C° 0 mm 1 m/s 609 mmHg 79%
    02:00 +13°C° 0 mm 1 m/s 609 mmHg 77%
    03:00 +13°C° 0 mm 1 m/s 608 mmHg 75%
    04:00 +13°C° 0 mm 1 m/s 608 mmHg 73%
    05:00 +14°C° 0 mm 1 m/s 609 mmHg 64%
    06:00 +16°C° 0 mm 1 m/s 610 mmHg 55%
    07:00 +18°C° 0 mm 1 m/s 611 mmHg 46%
    08:00 +20°C° 0 mm 2 m/s 612 mmHg 38%
    09:00 +24°C° 0 mm 2 m/s 613 mmHg 30%
    10:00 +27°C° 0 mm 2 m/s 613 mmHg 22%
    11:00 +28°C° 0 mm 2 m/s 613 mmHg 21%
    12:00 +29°C° 0 mm 3 m/s 613 mmHg 19%
    13:00 +31°C° 0 mm 3 m/s 613 mmHg 18%
    14:00 +30°C° 0 mm 3 m/s 612 mmHg 20%
    15:00 +29°C° 0 mm 4 m/s 612 mmHg 21%
    16:00 +28°C° 0 mm 4 m/s 611 mmHg 23%
    17:00 +26°C° 0 mm 4 m/s 610 mmHg 29%
    18:00 +22°C° 0 mm 3 m/s 610 mmHg 36%
    19:00 +19°C° 0 mm 3 m/s 609 mmHg 42%
    20:00 +18°C° 0 mm 2 m/s 609 mmHg 48%
    21:00 +17°C° 0 mm 2 m/s 610 mmHg 54%
    22:00 +15°C° 0 mm 1 m/s 610 mmHg 60%
    23:00 +15°C° 0 mm 1 m/s 609 mmHg 62%

    17 Dezembro, Segunda-feira

    Tempo Temperatura Precipitação Vento Pressão Humidade
    00:00 +15°C° 0 mm 1 m/s 609 mmHg 65%
    01:00 +14°C° 0 mm 1 m/s 609 mmHg 67%
    02:00 +14°C° 0 mm 1 m/s 608 mmHg 69%
    03:00 +14°C° 0 mm 1 m/s 608 mmHg 71%
    04:00 +13°C° 0 mm 1 m/s 608 mmHg 73%
    05:00 +15°C° 0 mm 1 m/s 609 mmHg 68%
    06:00 +16°C° 0 mm 1 m/s 610 mmHg 63%
    07:00 +19°C° 0 mm 1 m/s 611 mmHg 58%
    08:00 +21°C° 0 mm 1 m/s 612 mmHg 50%
    09:00 +23°C° 0 mm 2 m/s 613 mmHg 42%
    10:00 +26°C° 0 mm 2 m/s 614 mmHg 34%
    11:00 +27°C° 0 mm 2 m/s 613 mmHg 32%
    12:00 +28°C° 0 mm 3 m/s 613 mmHg 30%
    13:00 +29°C° 0 mm 3 m/s 613 mmHg 28%
    14:00 +28°C° 0 mm 3 m/s 612 mmHg 31%
    15:00 +27°C° 0 mm 3 m/s 611 mmHg 33%
    16:00 +26°C° 0 mm 3 m/s 611 mmHg 36%
    17:00 +24°C° 0 mm 3 m/s 610 mmHg 42%
    18:00 +21°C° 0 mm 3 m/s 610 mmHg 48%
    19:00 +19°C° 0 mm 2 m/s 610 mmHg 53%
    20:00 +18°C° 0 mm 2 m/s 610 mmHg 59%
    21:00 +17°C° 0 mm 2 m/s 610 mmHg 64%
    22:00 +15°C° 0 mm 1 m/s 610 mmHg 69%
    23:00 +15°C° 0 mm 1 m/s 609 mmHg 72%

    18 Dezembro, Terça-feira

    Tempo Temperatura Precipitação Vento Pressão Humidade
    00:00 +14°C° 0 mm 1 m/s 609 mmHg 75%
    01:00 +14°C° 0 mm 1 m/s 608 mmHg 77%
    02:00 +13°C° 0 mm 1 m/s 608 mmHg 79%
    03:00 +13°C° 0 mm 1 m/s 608 mmHg 81%
    04:00 +13°C° 0 mm 1 m/s 608 mmHg 82%
    05:00 +14°C° 0 mm 1 m/s 609 mmHg 75%
    06:00 +16°C° 0 mm 1 m/s 610 mmHg 68%
    07:00 +18°C° 0 mm 1 m/s 611 mmHg 61%
    08:00 +21°C° 0 mm 1 m/s 612 mmHg 51%
    09:00 +24°C° 0 mm 1 m/s 613 mmHg 41%
    10:00 +27°C° 0 mm 1 m/s 614 mmHg 30%
    11:00 +28°C° 0 mm 2 m/s 613 mmHg 28%
    12:00 +29°C° 0 mm 2 m/s 613 mmHg 26%
    13:00 +30°C° 0 mm 3 m/s 613 mmHg 24%
    14:00 +29°C° 0 mm 3 m/s 612 mmHg 27%
    15:00 +28°C° 0 mm 4 m/s 611 mmHg 30%
    16:00 +27°C° 0 mm 4 m/s 610 mmHg 34%
    17:00 +25°C° 0 mm 4 m/s 610 mmHg 40%
    18:00 +22°C° 0 mm 3 m/s 610 mmHg 47%
    19:00 +20°C° 0 mm 3 m/s 609 mmHg 54%
    20:00 +19°C° 0 mm 2 m/s 610 mmHg 58%
    21:00 +18°C° 0 mm 2 m/s 610 mmHg 63%
    22:00 +18°C° 0 mm 1 m/s 610 mmHg 67%
    23:00 +16°C° 0 mm 1 m/s 609 mmHg 71%
    Mostrar mais